WORLDVIEW-2 (WV-2)

Last updated on Thu Dec 18 2025 00:02:31 GMT+0000 (Coordinated Universal Time)

1 35946U 09055A 25351.60960619 .00000137 00000+0 59961-4 0 9993 2 35946 98.4784 62.6273 0005029 58.8122 301.3557 14.37726098849559
UTC large
Height (km)
Speed (km/s)
/
Latitude / Longitude
Inclination (degrees)
Orbital Period (minutes)
Azimuth
Elevation
Range (km)
Doppler Factor

Next 0 passes for location: London (51.5072 / 0.1276)

Sorry there are no passes over London.